Hourly Data Report for November 22, 2016

All times are specified in Local Standard Time (LST). Add 1 hour to adjust for Daylight Saving Time where and when it is observed.

KITCHENER/WATERLOO
ONTARIO

43°27'39.000" N
80°22'43.000" W
321.60 m
6144239
71368
YKF

Download Data

Hourly Data (November 2016)
Hourly Data Report for November 22, 2016
Temp Definition
°C
Dew Point Temp Definition
°C
Rel Hum Definition
%
Wind Dir Definition
10's deg

Wind Spd Definition
km/h
Visibility Definition
km
Stn Press Definition
kPa
Hmdx Definition


Wind Chill Definition


Weather Definition


TIME
00:00 Legend Double Dagger -0.7 -6.9 63 32 37 16.1 97.95   -8 LegendNANA
01:00 Legend Double Dagger -1.1 -6.3 68 32 24 16.1 98.00   -7 LegendNANA
02:00 Legend Double Dagger -1.4 -6.5 68 32 24 16.1 98.09   -8 LegendNANA
03:00 Legend Double Dagger -1.7 -6.5 70 32 24 16.1 98.14   -8 LegendNANA
04:00 Legend Double Dagger -1.9 -6.9 69 31 30 16.1 98.17   -9 LegendNANA
05:00 Legend Double Dagger -2.2 -6.9 70 32 22 16.1 98.22   -8 LegendNANA
06:00 Legend Double Dagger -2.3 -6.9 71 32 18 16.1 98.27   -8 LegendNANA
07:00 Legend Double Dagger -2.4 -6.8 72 31 18 16.1 98.33   -8 LegendNANA
08:00 Legend Double Dagger -2.5 -6.9 72 32 24 16.1 98.44   -9 LegendNANA
09:00 Legend Double Dagger -2.1 -6.9 70 32 17 16.1 98.51   -7 LegendNANA
10:00 Legend Double Dagger -1.8 -6.3 71 34 24 16.1 98.58   -8 LegendNANA
11:00 Legend Double Dagger -0.4 -5.9 67 31 24 16.1 98.60   -6 LegendNANA
12:00 Legend Double Dagger -0.3 -5.9 66 29 24 16.1 98.59   -6 LegendNANA
13:00 Legend Double Dagger 0.6 -5.9 62 30 22 16.1 98.59     LegendNANA
14:00 Legend Double Dagger 1.0 -5.4 62 31 18 16.1 98.58     LegendNANA
15:00 Legend Double Dagger 1.0 -5.3 63 28 22 16.1 98.59     LegendNANA
16:00 Legend Double Dagger 0.3 -4.9 68 29 17 16.1 98.63     LegendNANA
17:00 Legend Double Dagger -1.1 -5.1 75 30 15 16.1 98.66   -6 LegendNANA
18:00 Legend Double Dagger -1.8 -5.1 78 30 15 16.1 98.68   -7 LegendNANA
19:00 Legend Double Dagger -3.0 -5.5 83 32 11 16.1 98.72   -7 LegendNANA
20:00 Legend Double Dagger -3.5 -5.6 86 30 5 16.1 98.76   -6 LegendNANA
21:00 Legend Double Dagger -3.9 -5.5 89 29 5 16.1 98.79   -6 LegendNANA
22:00 Legend Double Dagger -5.8 -6.3 96 29 8 16.1 98.81   -10 LegendNANA
23:00 Legend Double Dagger -3.2 -4.9 88 31 5 16.1 98.80   -5 LegendNANA

Notes on Data Quality.

Legend

  • E = Estimated
  • M = Missing
  • NA = Not Available
  • ‡ = Partner data that is not subject to review by the National Climate Archives
Date modified: